UPS39 EDDK-EGLL

Flight info

Callsign UPS39
Flight time 0h 58m
Altitude 32000
Route NVO2R NVO Y868 SOGRI DCT DENUT L608 LOGAN
Aircraft B748/H-SDE3FGHIM1M2RWXY/LB1

Departure

Time 2026-05-05 21:10
Airport Cologne Bonn Airport (EDDK)

Arrival

Time 2026-05-05 22:08
Airport London Heathrow Airport (EGLL)
Time Latitude Longitude Altitude Speed Heading
2026-05-05 20:43 50.86904 7.13743 265 ft 0 kts 226°
2026-05-05 20:53 50.86904 7.13744 265 ft 2 kts 226°
2026-05-05 20:53 50.86913 7.13759 267 ft 2 kts 226°
2026-05-05 20:54 50.86924 7.13777 268 ft 3 kts 224°
2026-05-05 20:54 50.86938 7.13794 271 ft 3 kts 190°
2026-05-05 20:54 50.86958 7.13795 272 ft 3 kts 156°
2026-05-05 20:54 50.86974 7.13780 274 ft 1 kts 121°
2026-05-05 21:03 50.86974 7.13781 274 ft 1 kts 118°
2026-05-05 21:03 50.86969 7.13803 272 ft 6 kts 111°
2026-05-05 21:03 50.86941 7.13884 270 ft 9 kts 128°
2026-05-05 21:04 50.86909 7.13940 271 ft 12 kts 134°
2026-05-05 21:04 50.86839 7.14047 271 ft 16 kts 137°
2026-05-05 21:04 50.86737 7.14143 271 ft 11 kts 150°
2026-05-05 21:04 50.86666 7.14236 270 ft 15 kts 138°
2026-05-05 21:05 50.86587 7.14349 272 ft 15 kts 138°
2026-05-05 21:05 50.86537 7.14422 273 ft 15 kts 137°
2026-05-05 21:05 50.86467 7.14523 276 ft 12 kts 137°
2026-05-05 21:05 50.86416 7.14597 279 ft 8 kts 138°
2026-05-05 21:06 50.86368 7.14667 280 ft 12 kts 137°
2026-05-05 21:06 50.86305 7.14760 282 ft 12 kts 137°
2026-05-05 21:06 50.86220 7.14883 284 ft 23 kts 137°
2026-05-05 21:06 50.86125 7.15021 286 ft 12 kts 138°
2026-05-05 21:07 50.86046 7.15134 297 ft 20 kts 137°
2026-05-05 21:07 50.85931 7.15299 296 ft 22 kts 138°
2026-05-05 21:07 50.85819 7.15460 299 ft 21 kts 136°
2026-05-05 21:07 50.85703 7.15631 302 ft 28 kts 139°
2026-05-05 21:08 50.85535 7.15872 305 ft 37 kts 137°
2026-05-05 21:08 50.85378 7.16105 311 ft 27 kts 130°
2026-05-05 21:08 50.85350 7.16358 316 ft 23 kts 71°
2026-05-05 21:08 50.85463 7.16506 318 ft 16 kts 10°
2026-05-05 21:09 50.85557 7.16503 314 ft 12 kts 341°
2026-05-05 21:09 50.85678 7.16340 314 ft 58 kts 317°
2026-05-05 21:09 50.86206 7.15575 295 ft 149 kts 318°
2026-05-05 21:09 50.87124 7.14272 660 ft 187 kts 318°
2026-05-05 21:10 50.88127 7.12842 1405 ft 197 kts 318°
2026-05-05 21:10 50.89142 7.11350 2128 ft 200 kts 319°
2026-05-05 21:10 50.90180 7.09821 2800 ft 209 kts 313°
2026-05-05 21:10 50.90895 7.07809 3393 ft 217 kts 289°
2026-05-05 21:11 50.91072 7.05401 3973 ft 226 kts 264°
2026-05-05 21:11 50.90670 7.02967 4606 ft 231 kts 251°
2026-05-05 21:11 50.90147 7.00528 5208 ft 237 kts 251°
2026-05-05 21:11 50.89612 6.98028 5827 ft 240 kts 251°
2026-05-05 21:12 50.89079 6.95509 6435 ft 242 kts 251°
2026-05-05 21:12 50.88541 6.92970 6937 ft 249 kts 251°
2026-05-05 21:12 50.87968 6.90275 7420 ft 268 kts 251°
2026-05-05 21:12 50.87356 6.87400 7929 ft 279 kts 251°
2026-05-05 21:13 50.86729 6.84461 8531 ft 284 kts 251°
2026-05-05 21:13 50.86095 6.81488 9170 ft 286 kts 251°
2026-05-05 21:13 50.85455 6.78497 9771 ft 288 kts 251°
2026-05-05 21:13 50.84809 6.75482 10339 ft 290 kts 250°
2026-05-05 21:14 50.84167 6.72487 10902 ft 293 kts 250°
2026-05-05 21:14 50.83500 6.69384 11491 ft 302 kts 250°
2026-05-05 21:14 50.82810 6.66178 12112 ft 312 kts 250°
2026-05-05 21:14 50.82280 6.62810 12740 ft 321 kts 266°
2026-05-05 21:15 50.82265 6.59223 13344 ft 332 kts 270°
2026-05-05 21:15 50.82368 6.55524 13908 ft 341 kts 271°
2026-05-05 21:15 50.82449 6.51785 14438 ft 345 kts 270°
2026-05-05 21:15 50.82480 6.47971 14969 ft 348 kts 269°
2026-05-05 21:16 50.82511 6.44081 15518 ft 357 kts 270°
2026-05-05 21:16 50.82562 6.40103 16061 ft 365 kts 270°
2026-05-05 21:16 50.82617 6.36066 16619 ft 368 kts 270°
2026-05-05 21:16 50.82663 6.31975 17174 ft 372 kts 270°
2026-05-05 21:17 50.82703 6.27919 17744 ft 375 kts 270°
2026-05-05 21:17 50.82746 6.23771 18264 ft 378 kts 270°
2026-05-05 21:17 50.82790 6.19589 18754 ft 381 kts 270°
2026-05-05 21:17 50.82832 6.15376 19236 ft 384 kts 270°
2026-05-05 21:18 50.82871 6.11141 19722 ft 386 kts 270°
2026-05-05 21:18 50.82909 6.06873 20215 ft 389 kts 270°
2026-05-05 21:18 50.82946 6.02563 20718 ft 393 kts 269°
2026-05-05 21:18 50.82846 5.98266 21028 ft 399 kts 266°
2026-05-05 21:19 50.82769 5.93894 21035 ft 395 kts 268°
2026-05-05 21:19 50.82711 5.89538 21029 ft 395 kts 267°
2026-05-05 21:19 50.82616 5.85192 21259 ft 394 kts 266°
2026-05-05 21:19 50.82506 5.80809 21673 ft 403 kts 267°
2026-05-05 21:20 50.82406 5.76330 22116 ft 411 kts 267°
2026-05-05 21:20 50.82312 5.71744 22573 ft 420 kts 267°
2026-05-05 21:20 50.82210 5.67153 23027 ft 427 kts 267°
2026-05-05 21:20 50.82095 5.62357 23486 ft 434 kts 267°
2026-05-05 21:21 50.81985 5.57606 23867 ft 440 kts 267°
2026-05-05 21:21 50.81876 5.52733 24256 ft 443 kts 267°
2026-05-05 21:21 50.81760 5.47818 24638 ft 446 kts 266°
2026-05-05 21:21 50.81638 5.42882 25043 ft 450 kts 266°
2026-05-05 21:22 50.81517 5.37991 25434 ft 452 kts 266°
2026-05-05 21:22 50.81394 5.33010 25833 ft 455 kts 266°
2026-05-05 21:22 50.81266 5.27979 26243 ft 458 kts 266°
2026-05-05 21:22 50.81135 5.22917 26662 ft 461 kts 266°
2026-05-05 21:23 50.81000 5.17823 27075 ft 464 kts 266°
2026-05-05 21:23 50.80864 5.12710 27500 ft 467 kts 266°
2026-05-05 21:23 50.80865 5.07598 27941 ft 471 kts 275°
2026-05-05 21:23 50.81515 5.02513 28406 ft 474 kts 287°
2026-05-05 21:24 50.82799 4.97702 28893 ft 476 kts 295°
2026-05-05 21:24 50.84289 4.92989 29341 ft 478 kts 296°
2026-05-05 21:24 50.85803 4.88269 29774 ft 481 kts 296°
2026-05-05 21:24 50.87309 4.83525 30164 ft 483 kts 295°
2026-05-05 21:25 50.88789 4.78802 30530 ft 484 kts 295°
2026-05-05 21:25 50.90291 4.74015 30903 ft 486 kts 295°
2026-05-05 21:25 50.91809 4.69203 31278 ft 487 kts 295°
2026-05-05 21:25 50.93324 4.64387 31656 ft 487 kts 295°
2026-05-05 21:26 50.94832 4.59562 31886 ft 491 kts 295°
2026-05-05 21:26 50.96266 4.54961 31882 ft 500 kts 295°
2026-05-05 21:26 50.99024 4.46125 31887 ft 503 kts 295°
2026-05-05 21:27 51.02110 4.36178 31892 ft 503 kts 294°
2026-05-05 21:27 51.05178 4.26258 31909 ft 502 kts 294°
2026-05-05 21:28 51.08263 4.16237 31910 ft 501 kts 294°
2026-05-05 21:28 51.11315 4.06287 31902 ft 501 kts 294°
2026-05-05 21:29 51.14372 3.96277 31902 ft 500 kts 294°
2026-05-05 21:29 51.17377 3.86394 31899 ft 500 kts 294°
2026-05-05 21:30 51.20420 3.76353 31898 ft 499 kts 294°
2026-05-05 21:30 51.23419 3.66423 31904 ft 499 kts 296°
2026-05-05 21:31 51.26915 3.56858 31898 ft 500 kts 299°
2026-05-05 21:31 51.30459 3.47330 31910 ft 499 kts 298°
2026-05-05 21:32 51.33999 3.37697 31914 ft 498 kts 298°
2026-05-05 21:32 51.36706 3.27609 31918 ft 496 kts 288°
2026-05-05 21:33 51.39125 3.17298 31920 ft 496 kts 288°
2026-05-05 21:33 51.41583 3.06956 31923 ft 496 kts 288°
2026-05-05 21:34 51.44003 2.96606 31928 ft 495 kts 288°
2026-05-05 21:34 51.46416 2.86314 31925 ft 494 kts 288°
2026-05-05 21:35 51.48818 2.75974 31936 ft 494 kts 288°
2026-05-05 21:35 51.51208 2.65660 31939 ft 494 kts 288°
2026-05-05 21:36 51.53595 2.55296 31939 ft 493 kts 288°
2026-05-05 21:36 51.55961 2.44983 31944 ft 492 kts 288°
2026-05-05 21:37 51.58316 2.34670 31949 ft 492 kts 288°
2026-05-05 21:37 51.60659 2.24360 31948 ft 492 kts 288°
2026-05-05 21:38 51.63004 2.13992 31948 ft 488 kts 288°
2026-05-05 21:38 51.64146 2.08920 31643 ft 491 kts 288°
2026-05-05 21:38 51.65325 2.03666 30872 ft 497 kts 288°
2026-05-05 21:39 51.66463 1.98592 30183 ft 497 kts 288°
2026-05-05 21:39 51.67628 1.93383 29421 ft 495 kts 288°
2026-05-05 21:39 51.68797 1.88143 28702 ft 492 kts 288°
2026-05-05 21:39 51.69940 1.83002 27973 ft 488 kts 288°
2026-05-05 21:40 51.71082 1.77852 27236 ft 479 kts 288°
2026-05-05 21:40 51.72184 1.72877 26544 ft 461 kts 288°
2026-05-05 21:40 51.73237 1.68107 25899 ft 452 kts 288°
2026-05-05 21:40 51.74167 1.63296 25233 ft 454 kts 280°
2026-05-05 21:41 51.74510 1.58240 24388 ft 456 kts 269°
2026-05-05 21:41 51.74282 1.53083 23264 ft 463 kts 264°
2026-05-05 21:41 51.73919 1.47864 21987 ft 464 kts 263°
2026-05-05 21:41 51.73567 1.42815 21367 ft 442 kts 264°
2026-05-05 21:42 51.73267 1.38040 21357 ft 426 kts 264°
2026-05-05 21:42 51.72970 1.33268 21388 ft 434 kts 264°
2026-05-05 21:42 51.72647 1.28418 21377 ft 432 kts 264°
2026-05-05 21:42 51.72428 1.25207 21383 ft 433 kts 264°
2026-05-05 21:43 51.71999 1.18789 20870 ft 427 kts 264°
2026-05-05 21:43 51.71691 1.14134 20371 ft 408 kts 264°
2026-05-05 21:43 51.71389 1.09653 19875 ft 393 kts 264°
2026-05-05 21:43 51.71098 1.05395 19393 ft 379 kts 264°
2026-05-05 21:44 51.70810 1.01171 18488 ft 379 kts 264°
2026-05-05 21:44 51.70619 0.98382 17812 ft 378 kts 264°
2026-05-05 21:44 51.70235 0.92806 16425 ft 375 kts 264°
2026-05-05 21:44 51.70041 0.90018 15757 ft 373 kts 264°
2026-05-05 21:45 51.69659 0.84528 14642 ft 364 kts 264°
2026-05-05 21:45 51.69468 0.81803 14210 ft 358 kts 264°
2026-05-05 21:45 51.69191 0.77870 13638 ft 347 kts 264°
2026-05-05 21:45 51.68924 0.74091 13028 ft 339 kts 264°
2026-05-05 21:46 51.68660 0.70358 12504 ft 329 kts 264°
2026-05-05 21:46 51.68402 0.66746 11996 ft 321 kts 264°
2026-05-05 21:46 51.68148 0.63199 11485 ft 315 kts 264°
2026-05-05 21:46 51.67898 0.59703 11029 ft 320 kts 264°
2026-05-05 21:47 51.67640 0.56136 10539 ft 313 kts 264°
2026-05-05 21:47 51.67392 0.52726 10056 ft 306 kts 265°
2026-05-05 21:47 51.67145 0.49333 9546 ft 301 kts 265°
2026-05-05 21:47 51.66901 0.45998 9017 ft 296 kts 265°
2026-05-05 21:48 51.66665 0.42773 8562 ft 289 kts 265°
2026-05-05 21:48 51.66430 0.39586 8127 ft 282 kts 265°
2026-05-05 21:48 51.66199 0.36470 7702 ft 279 kts 265°
2026-05-05 21:48 51.65968 0.33345 7321 ft 279 kts 265°
2026-05-05 21:49 51.65739 0.30254 6937 ft 283 kts 265°
2026-05-05 21:49 51.65503 0.27104 6578 ft 283 kts 265°
2026-05-05 21:49 51.65269 0.23999 6206 ft 279 kts 265°
2026-05-05 21:49 51.65037 0.20916 5802 ft 275 kts 265°
2026-05-05 21:50 51.64807 0.17866 5398 ft 272 kts 265°
2026-05-05 21:50 51.64596 0.14853 4996 ft 267 kts 270°
2026-05-05 21:50 51.64540 0.11844 4626 ft 267 kts 268°
2026-05-05 21:50 51.64412 0.08891 4321 ft 261 kts 268°
2026-05-05 21:51 51.64304 0.06049 4156 ft 259 kts 269°
2026-05-05 21:51 51.64217 0.03119 4070 ft 259 kts 269°
2026-05-05 21:51 51.64129 0.00259 3972 ft 260 kts 269°
2026-05-05 21:51 51.64033 -0.02653 3867 ft 259 kts 269°
2026-05-05 21:52 51.63840 -0.08447 3717 ft 260 kts 269°
2026-05-05 21:52 51.63744 -0.11323 3621 ft 258 kts 269°
2026-05-05 21:52 51.63647 -0.14236 3527 ft 258 kts 269°
2026-05-05 21:53 51.63550 -0.17096 3423 ft 258 kts 268°
2026-05-05 21:53 51.63451 -0.19985 3319 ft 259 kts 268°
2026-05-05 21:53 51.63352 -0.22851 3218 ft 258 kts 268°
2026-05-05 21:53 51.63253 -0.25717 3107 ft 258 kts 268°
2026-05-05 21:54 51.63153 -0.28579 3076 ft 252 kts 268°
2026-05-05 21:54 51.63054 -0.31412 3073 ft 250 kts 268°
2026-05-05 21:54 51.62954 -0.34233 3080 ft 253 kts 268°
2026-05-05 21:54 51.62853 -0.37064 2994 ft 254 kts 268°
2026-05-05 21:55 51.62752 -0.39892 2992 ft 253 kts 268°
2026-05-05 21:55 51.62650 -0.42696 2992 ft 253 kts 268°
2026-05-05 21:55 51.62547 -0.45529 2989 ft 253 kts 268°
2026-05-05 21:55 51.62445 -0.48340 2999 ft 252 kts 268°
2026-05-05 21:56 51.62340 -0.51175 2998 ft 253 kts 267°
2026-05-05 21:56 51.62096 -0.53989 2996 ft 253 kts 263°
2026-05-05 21:56 51.61897 -0.56773 3003 ft 253 kts 265°
2026-05-05 21:56 51.61717 -0.59410 3002 ft 253 kts 264°
2026-05-05 21:57 51.61514 -0.61931 3001 ft 253 kts 263°
2026-05-05 21:57 51.61360 -0.63769 3005 ft 253 kts 263°
2026-05-05 21:59 51.61318 -0.64264 3003 ft 253 kts 263°
2026-05-05 22:00 51.61095 -0.66979 3009 ft 253 kts 263°
2026-05-05 22:00 51.60992 -0.68257 3000 ft 251 kts 263°
2026-05-05 22:01 51.60953 -0.68750 2995 ft 252 kts 263°
2026-05-05 22:01 51.60773 -0.70984 3020 ft 253 kts 263°
2026-05-05 22:01 51.60573 -0.73431 3011 ft 254 kts 263°
2026-05-05 22:01 51.60318 -0.76184 3024 ft 247 kts 256°
2026-05-05 22:02 51.59488 -0.78605 3034 ft 248 kts 223°
2026-05-05 22:02 51.58018 -0.79996 3031 ft 247 kts 191°
2026-05-05 22:02 51.56357 -0.80106 3033 ft 233 kts 176°
2026-05-05 22:02 51.54723 -0.80068 3011 ft 226 kts 172°
2026-05-05 22:03 51.53180 -0.79837 3031 ft 224 kts 173°
2026-05-05 22:03 51.51619 -0.79693 3026 ft 223 kts 176°
2026-05-05 22:03 51.50072 -0.79658 3028 ft 223 kts 172°
2026-05-05 22:03 51.48664 -0.78777 3017 ft 216 kts 137°
2026-05-05 22:04 51.47804 -0.76904 3012 ft 201 kts 105°
2026-05-05 22:04 51.47608 -0.74824 2993 ft 180 kts 90°
2026-05-05 22:04 51.47584 -0.72813 3008 ft 179 kts 89°
2026-05-05 22:04 51.47585 -0.70812 2849 ft 181 kts 88°
2026-05-05 22:05 51.47597 -0.68810 2593 ft 178 kts 88°
2026-05-05 22:05 51.47610 -0.66836 2359 ft 177 kts 88°
2026-05-05 22:05 51.47623 -0.64874 2117 ft 169 kts 88°
2026-05-05 22:05 51.47635 -0.63029 1918 ft 166 kts 88°
2026-05-05 22:06 51.47648 -0.61166 1729 ft 164 kts 89°
2026-05-05 22:06 51.47658 -0.59384 1506 ft 156 kts 89°
2026-05-05 22:06 51.47668 -0.57688 1291 ft 149 kts 89°
2026-05-05 22:06 51.47680 -0.56035 1077 ft 148 kts 89°
2026-05-05 22:07 51.47690 -0.54402 845 ft 149 kts 88°
2026-05-05 22:07 51.47703 -0.52743 614 ft 150 kts 86°
2026-05-05 22:07 51.47737 -0.51034 456 ft 149 kts 88°
2026-05-05 22:07 51.47737 -0.49412 223 ft 146 kts 85°
2026-05-05 22:08 51.47748 -0.47816 94 ft 134 kts 90°
2026-05-05 22:08 51.47756 -0.46604 102 ft 80 kts 90°
2026-05-05 22:08 51.47759 -0.45886 92 ft 56 kts 90°
2026-05-05 22:08 51.47757 -0.45423 95 ft 32 kts 88°
2026-05-05 22:09 51.47745 -0.45239 95 ft 12 kts 115°
2026-05-05 22:09 51.47680 -0.45175 97 ft 11 kts 176°
2026-05-05 22:09 51.47622 -0.45177 95 ft 3 kts 196°
2026-05-05 22:09 51.47604 -0.45201 97 ft 3 kts 230°
2026-05-05 22:10 51.47597 -0.45235 98 ft 1 kts 264°
2026-05-05 22:10 51.47597 -0.45247 98 ft 5 kts 269°
2026-05-05 22:10 51.47597 -0.45358 97 ft 15 kts 270°
2026-05-05 22:10 51.47597 -0.45536 92 ft 17 kts 270°
2026-05-05 22:11 51.47588 -0.45708 94 ft 14 kts 250°
2026-05-05 22:11 51.47536 -0.45756 95 ft 7 kts 201°
2026-05-05 22:11 51.47519 -0.45825 94 ft 10 kts 265°
2026-05-05 22:11 51.47516 -0.45974 94 ft 18 kts 268°
2026-05-05 22:12 51.47514 -0.46209 96 ft 25 kts 270°
2026-05-05 22:12 51.47515 -0.46503 97 ft 21 kts 270°
2026-05-05 22:12 51.47508 -0.46719 97 ft 19 kts 253°
2026-05-05 22:12 51.47483 -0.46874 96 ft 9 kts 230°
2026-05-05 22:13 51.47427 -0.46889 94 ft 11 kts 175°
2026-05-05 22:13 51.47316 -0.46870 95 ft 21 kts 177°
2026-05-05 22:13 51.47162 -0.46868 92 ft 23 kts 180°
2026-05-05 22:13 51.46997 -0.46866 91 ft 25 kts 179°
2026-05-05 22:14 51.46820 -0.46862 95 ft 23 kts 180°
2026-05-05 22:14 51.46715 -0.46861 95 ft 14 kts 179°
2026-05-05 22:14 51.46659 -0.46797 95 ft 7 kts 101°
2026-05-05 22:14 51.46658 -0.46697 99 ft 12 kts 90°
2026-05-05 22:15 51.46659 -0.46523 98 ft 19 kts 90°
2026-05-05 22:15 51.46658 -0.46268 96 ft 26 kts 94°
2026-05-05 22:15 51.46660 -0.46015 92 ft 14 kts 96°
2026-05-05 22:15 51.46608 -0.45909 90 ft 14 kts 145°
2026-05-05 22:16 51.46511 -0.45800 90 ft 18 kts 145°
2026-05-05 22:16 51.46419 -0.45704 94 ft 15 kts 146°
2026-05-05 22:16 51.46355 -0.45632 96 ft 8 kts 144°
2026-05-05 22:16 51.46344 -0.45627 96 ft 0 kts 166°
2026-05-05 22:17 51.46337 -0.45627 95 ft 2 kts 180°
2026-05-05 22:17 51.46324 -0.45641 95 ft 3 kts 219°
2026-05-05 22:17 51.46319 -0.45669 96 ft 4 kts 266°
2026-05-05 22:17 51.46323 -0.45757 93 ft 12 kts 273°
2026-05-05 22:18 51.46324 -0.45938 92 ft 20 kts 269°
2026-05-05 22:18 51.46300 -0.46120 97 ft 16 kts 231°
2026-05-05 22:18 51.46242 -0.46172 95 ft 6 kts 185°
2026-05-05 22:18 51.46224 -0.46172 95 ft 0 kts 180°